Temperature
24 23 23 22 21 20 20 20 19 19 19 18 18 18 18 18 18 17 17 17 17 17 17 17 17 17 17 17 17 17 17 17 17 17 18 18 18 18 18 18 18 18 17
24 23 23 22 21 20 20 19 19 19 19 18 18 18 18 18 18 17 17 17 17 17 17 17 17 17 17 17 17 17 17 17 17 17 17 17 18 18 18 18 18 18 18
24 24 23 22 21 21 20 20 19 19 19 19 18 18 18 18 18 17 17 17 17 17 17 17 17 17 17 17 17 17 17 17 17 17 17 17 17 17 18 18 18 17 17
25 24 23 22 22 21 20 20 19 19 19 19 18 18 18 18 18 17 17 17 17 17 17 17 17 17 17 17 17 17 16 17 17 17 17 17 17 17 17 17 17 17 17
26 25 24 23 22 21 20 20 19 19 19 18 18 18 18 17 17 17 17 17 17 17 17 17 17 17 17 17 16 17 16 17 17 17 17 17 17 17 17 17 17 17 17
26 25 24 23 22 21 21 20 19 19 19 18 18 18 18 17 17 17 17 17 17 17 17 17 17 17 17 17 17 17 17 17 17 17 17 17 17 17 17 17 17 17 17
26 25 24 23 22 21 21 20 19 19 18 18 18 18 18 17 17 17 17 17 17 17 17 17 17 17 16 16 16 16 16 16 17 17 17 16 17 17 17 17 17 17 17
26 25 24 23 22 22 21 20 19 19 18 18 18 18 18 17 17 17 17 17 17 17 17 17 17 16 16 16 16 16 16 16 16 16 16 16 16 16 16 16 16 16 16
26 25 24 23 22 22 21 20 19 19 18 18 18 18 18 18 17 17 17 17 17 17 17 16 16 16 16 16 16 16 16 16 16 16 16 16 16 16 16 16 16 16 15
26 25 24 23 23 22 21 20 19 19 18 18 18 18 18 18 17 17 17 17 16 16 16 16 16 16 16 16 16 16 16 16 16 16 16 16 16 16 16 16 16 16 16
26 25 24 23 22 22 21 20 19 19 18 18 18 18 17 17 17 17 17 17 16 16 16 16 16 16 16 16 16 15 15 15 15 15 15 15 15 15 15 15 15 15 15
26 25 24 23 23 22 20 19 19 19 18 18 18 17 17 17 17 17 17 16 16 16 16 16 16 16 16 16 15 15 15 15 15 15 15 15 15 15 15 15 15 15 15
26 25 24 23 22 21 21 20 19 19 18 18 18 17 17 17 17 17 17 16 16 16 16 16 15 15 15 15 15 15 15 15 15 15 15 15 15 15 14 14 14 14 14
25 25 24 23 22 21 20 20 19 19 19 18 18 17 17 17 17 17 17 16 16 16 16 15 15 15 15 15 15 15 15 14 14 14 14 14 14 14 14 14 14 14 14
25 24 23 22 22 21 20 20 19 19 19 18 18 17 17 17 17 17 16 16 16 15 15 15 15 15 15 15 15 15 14 14 14 14 14 14 14 14 14 14 14 14 14
25 24 23 22 22 21 20 20 19 19 18 18 18 17 17 17 17 16 16 16 16 15 15 15 15 15 15 15 15 14 14 14 14 13 13 13 14 14 14 13 13 13 13
24 23 23 22 21 21 20 19 19 18 18 18 17 17 17 17 16 16 16 16 15 15 15 15 15 15 15 14 14 14 14 14 13 13 13 13 13 13 13 13 13 13 13
24 23 22 22 21 20 20 19 19 18 18 17 17 17 17 16 16 16 16 15 15 15 15 14 14 14 14 14 14 14 14 13 13 13 13 13 13 13 13 13 13 13 13
23 23 22 22 21 20 20 19 18 18 18 17 17 17 16 16 16 16 15 15 15 15 15 14 14 14 14 14 14 14 13 13 13 13 13 12 12 12 12 12 12 12 12
23 22 22 21 20 20 19 18 18 18 17 17 17 16 16 16 16 15 15 15 15 14 14 14 14 14 14 14 14 14 13 13 13 12 12 12 12 12 12 12 12 12 12
22 22 21 20 20 19 19 18 18 17 17 17 16 16 16 16 16 15 15 15 14 14 14 14 14 14 14 14 13 13 13 13 12 12 12 12 12 12 12 12 12 12 12
22 21 20 20 19 19 18 18 17 17 16 16 16 16 16 15 15 15 15 15 14 14 14 14 14 14 14 13 13 13 13 12 12 12 12 12 12 12 12 12 12 12 11
21 20 20 19 19 18 18 17 17 16 16 16 16 15 15 15 15 15 15 15 14 14 14 14 14 14 13 13 13 13 13 12 12 12 12 12 12 12 12 11 11 11 11
20 20 19 19 18 18 17 17 16 16 16 15 15 15 15 15 15 15 14 14 14 14 14 14 14 13 13 13 13 13 12 12 12 12 12 12 12 12 11 11 11 11 11
20 19 19 19 18 17 17 16 16 16 15 15 15 15 15 15 15 15 14 14 14 14 14 14 14 13 13 13 13 12 12 12 12 12 11 11 11 11 11 11 11 11 11
19 19 18 18 18 17 16 16 16 15 15 15 15 15 15 15 15 15 14 14 14 14 14 14 14 13 13 13 13 12 12 12 12 11 11 11 11 11 11 11 11 11 11
Wind_Speed
10 10 9 9 9 8 6 5 4 3 2 1 1 1 1 1 1 2 2 2 2 2 1 2 1 1 1 1 2 1 2 2 1 1 1 2 3 2 2 1 1 3 4
9 9 9 9 9 8 7 6 4 3 2 1 1 1 1 1 2 2 2 2 2 1 1 1 2 1 1 1 1 1 2 2 1 1 1 1 1 1 2 2 3 2 2
10 10 9 8 9 9 7 6 4 3 2 2 1 1 2 1 2 2 2 2 1 1 1 1 1 1 1 1 1 1 2 2 2 1 1 1 1 0 1 1 1 2 2
11 11 10 9 9 9 8 7 6 4 3 2 1 1 2 1 1 1 2 2 1 1 1 2 2 2 1 1 2 0 2 2 2 2 1 1 0 1 1 1 1 2 3
11 10 9 9 8 8 8 8 6 5 4 3 2 0 1 1 1 1 2 1 1 1 2 2 2 2 1 2 2 1 1 1 2 2 2 2 1 2 1 1 1 1 2
10 10 10 9 7 7 7 8 6 5 4 3 3 2 0 1 2 1 1 0 1 1 1 1 1 2 1 2 2 2 1 1 2 2 2 1 1 1 1 1 2 2 2
9 10 10 9 8 8 7 7 6 5 5 4 3 3 2 1 1 1 1 1 1 1 1 1 1 1 1 1 2 2 2 2 2 2 2 2 2 1 1 1 1 1 1
9 10 10 9 8 8 8 8 6 5 4 4 3 2 1 1 1 1 1 1 1 2 2 1 1 1 2 2 1 2 1 1 2 2 2 2 2 2 1 0 1 1 1
8 9 10 9 8 8 8 8 7 5 4 4 4 3 2 1 1 1 1 1 1 1 2 1 1 1 1 2 1 2 2 1 1 2 2 2 2 2 1 0 0 1 1
9 9 9 8 8 8 7 7 6 5 5 4 4 3 3 2 1 0 1 1 2 2 2 2 1 1 1 2 2 2 2 1 2 1 1 2 2 2 2 1 1 1 1
8 8 9 8 8 7 7 6 6 4 4 4 3 3 3 2 1 1 1 0 1 1 1 1 1 1 2 2 1 2 2 2 2 3 2 2 2 2 2 2 1 1 0
8 8 8 8 8 8 7 5 6 6 4 4 4 3 2 2 1 1 1 1 1 1 1 1 2 2 2 2 2 2 3 2 3 3 2 3 2 2 2 2 2 1 0
7 7 7 8 7 6 6 5 5 5 5 5 4 3 2 2 1 1 1 1 0 0 1 1 1 2 2 2 2 2 2 2 3 2 2 2 2 2 2 2 2 2 1
6 7 6 6 6 6 5 5 3 4 5 4 4 3 3 2 1 1 1 1 1 1 1 1 1 1 2 3 3 2 2 3 2 2 3 2 2 2 2 2 2 2 2
6 7 7 6 7 6 5 4 3 2 3 4 3 3 3 2 1 1 1 0 1 1 1 1 1 1 2 3 4 3 2 2 2 2 2 2 2 2 1 1 1 2 1
6 7 6 6 6 6 5 4 4 3 3 3 3 3 3 2 2 1 1 0 1 1 1 1 2 2 3 4 6 4 3 3 3 2 2 0 1 3 3 2 1 0 0
7 6 5 5 5 5 5 5 4 4 4 3 3 2 3 2 2 2 2 1 1 1 1 1 2 2 3 4 4 4 3 2 2 2 3 3 2 2 1 0 1 1 2
7 5 5 5 5 5 5 5 4 4 4 3 2 2 2 2 2 2 2 2 2 1 1 1 1 1 1 1 3 4 3 2 2 2 1 1 2 3 3 2 2 2 2
6 5 4 4 4 4 5 5 4 4 3 3 2 2 1 2 2 2 2 2 2 2 2 2 1 1 1 0 1 3 3 1 1 1 1 1 2 2 3 1 2 2 3
6 4 4 5 5 4 4 4 4 3 2 2 2 2 2 1 2 2 2 2 1 2 2 1 1 1 1 2 1 1 3 2 2 1 1 2 1 2 2 1 2 3 3
6 6 5 5 4 4 4 3 2 2 1 1 2 2 2 2 2 2 2 2 2 2 2 2 2 2 2 4 3 2 2 3 3 2 1 1 1 1 2 3 3 4 4
5 5 5 5 4 4 3 2 2 2 2 1 1 2 1 2 1 2 2 2 2 3 3 3 3 2 2 3 4 5 4 4 3 3 1 0 1 3 4 4 5 5 5
4 4 5 5 4 3 3 2 2 2 2 1 1 1 2 1 2 3 3 3 3 3 3 3 3 2 2 3 4 5 4 4 3 3 3 4 5 5 4 6 6 4 3
3 3 4 4 3 3 2 2 3 2 1 1 1 2 2 3 3 3 3 3 3 3 2 2 2 2 1 1 0 1 3 4 3 3 4 5 6 6 5 4 3 3 3
3 3 3 3 3 3 3 2 2 2 1 1 2 2 3 3 2 2 2 2 1 1 1 2 2 1 1 0 1 1 2 2 2 3 4 4 3 3 3 2 2 3 3
3 2 2 2 3 3 2 2 2 2 1 1 2 2 2 2 3 3 2 1 2 3 3 2 1 0 2 2 2 1 1 3 3 3 5 4 3 3 3 3 3 3 2
Wind_Direction
150 148 150 145 134 129 124 118 119 112 105 89 109 117 91 56 58 75 82 92 54 48 37 351 11 344 7 357 319 312 293 270 251 267 278 266 228 196 202 187 177 176 172
150 151 155 152 147 141 140 136 131 128 141 125 125 123 89 107 95 67 81 79 61 13 36 5 333 354 8 332 308 317 293 278 259 233 239 246 241 234 205 180 182 183 161
156 158 161 161 155 150 150 151 150 142 151 147 148 106 93 34 54 78 90 86 69 60 347 14 350 330 309 261 275 276 287 282 292 257 236 246 242 247 233 205 175 166 170
160 162 163 165 162 159 155 149 151 151 148 150 128 137 119 93 78 74 89 102 85 32 14 26 1 333 338 339 278 282 285 276 278 287 271 261 208 219 201 218 185 187 192
158 156 158 159 159 158 157 152 150 153 154 159 151 154 97 117 93 91 91 99 111 62 33 31 358 334 344 336 336 341 308 296 296 296 296 288 274 257 212 209 247 253 220
145 146 146 148 150 149 150 147 145 154 156 159 157 144 78 47 49 47 59 243 134 95 43 32 14 345 334 341 341 327 316 327 327 315 313 307 295 288 278 200 220 239 251
146 148 147 152 152 148 144 137 144 152 159 164 170 163 188 194 198 273 240 257 21 76 62 24 27 346 346 359 343 314 319 340 320 297 306 320 303 299 312 248 241 244 256
149 151 150 152 154 149 142 139 142 146 156 158 165 156 184 229 229 257 301 359 11 34 62 42 25 10 1 342 346 314 307 314 311 314 321 303 310 345 355 4 328 294 299
151 152 151 153 152 146 143 144 143 146 149 155 156 156 170 207 286 283 276 7 7 25 38 34 44 18 354 330 339 324 312 323 302 316 318 304 299 317 335 320 198 220 268
154 147 148 151 150 148 142 140 143 147 148 153 168 156 167 183 201 343 23 8 25 26 13 7 19 8 358 352 350 323 312 313 297 277 295 314 320 331 329 312 273 251 248
148 146 147 145 140 140 144 148 144 147 154 151 144 128 147 164 180 140 113 54 22 17 343 347 355 359 357 359 353 327 349 0 334 330 352 346 331 338 332 322 310 284 221
142 143 145 139 141 145 146 154 156 160 159 148 148 151 157 160 157 132 131 121 63 27 359 359 352 356 10 7 359 343 356 354 343 343 357 351 340 346 338 336 332 339 3
133 134 139 140 141 143 145 159 169 162 160 161 161 155 164 158 146 115 118 124 97 55 45 31 9 9 12 6 355 356 354 355 358 359 6 356 344 336 343 350 339 347 352
137 133 131 131 135 133 134 138 164 163 162 159 155 155 166 166 158 136 130 106 87 61 57 30 16 23 22 10 2 7 15 13 11 14 23 9 356 336 328 328 337 1 17
135 128 129 135 135 135 135 137 149 142 139 144 146 147 146 133 144 149 136 68 357 28 50 47 25 33 29 17 12 352 17 355 350 6 23 20 36 48 19 344 20 3 7
120 123 133 132 139 143 146 147 144 133 129 141 143 139 142 149 163 166 176 129 67 51 49 36 39 25 19 30 28 18 357 342 341 342 337 327 48 64 70 52 44 327 287
126 128 130 136 143 146 146 151 152 148 154 159 151 156 160 165 174 195 161 150 150 161 177 91 78 55 36 24 19 5 330 316 327 341 341 338 17 52 48 21 289 275 256
121 121 134 138 140 145 152 152 155 151 158 156 159 175 184 178 184 185 179 178 179 190 186 138 131 121 57 42 13 341 306 312 325 324 335 355 29 4 2 334 317 291 283
123 130 138 139 135 145 145 147 158 152 156 161 167 169 181 193 205 198 195 200 191 194 206 203 184 145 130 131 5 339 300 293 313 337 17 50 63 7 346 316 305 306 300
122 119 117 118 120 123 130 143 156 161 172 174 167 161 165 191 213 201 197 203 205 227 222 185 174 183 185 162 196 293 293 299 305 278 129 80 64 351 345 289 285 294 303
119 113 108 110 112 113 122 145 140 134 128 143 148 146 168 203 188 166 171 198 218 235 234 204 214 216 195 173 202 225 265 302 303 298 297 74 113 263 283 281 272 274 288
112 113 105 105 104 107 118 125 108 97 87 93 122 136 168 229 164 146 182 214 224 233 230 227 231 230 203 186 203 214 237 285 300 304 327 314 253 269 272 271 274 278 287
114 116 117 112 106 115 134 135 116 107 97 101 127 169 196 216 176 195 203 215 219 232 231 221 230 230 203 181 198 212 237 259 278 306 303 287 272 266 264 257 267 267 263
128 137 128 130 130 136 137 127 121 120 130 165 195 202 207 212 206 218 217 224 228 236 244 244 250 247 167 109 124 266 257 256 267 290 284 271 265 265 266 259 256 245 259
135 127 130 137 135 130 126 123 127 138 167 199 220 224 223 220 213 211 239 245 248 236 253 298 314 323 350 142 204 237 305 305 301 294 279 267 256 250 250 254 247 234 244
107 109 115 126 133 136 133 127 135 144 178 229 242 244 240 231 231 216 222 176 165 143 148 161 192 77 141 166 180 195 259 295 305 283 265 262 261 265 264 264 261 251 250
Height
1508 1510 1512 1514 1515 1516 1517 1518 1518 1519 1519 1519 1519 1520 1520 1520 1519 1518 1518 1517 1517 1517 1517 1517 1517 1517 1517 1517 1517 1518 1518 1518 1519 1519 1519 1519 1520 1520 1521 1522 1523 1523 1524
1507 1509 1511 1513 1514 1515 1516 1517 1518 1518 1518 1519 1519 1520 1520 1520 1519 1519 1518 1517 1517 1517 1517 1516 1516 1516 1516 1516 1516 1517 1517 1517 1518 1518 1518 1518 1519 1518 1519 1520 1520 1521 1522
1504 1507 1510 1512 1513 1514 1515 1516 1517 1517 1518 1518 1519 1519 1519 1519 1519 1519 1518 1518 1517 1517 1517 1516 1516 1516 1516 1515 1515 1516 1516 1516 1516 1517 1518 1517 1517 1518 1518 1518 1518 1519 1520
1502 1505 1507 1510 1511 1513 1514 1515 1516 1516 1517 1518 1518 1519 1519 1519 1519 1519 1519 1518 1517 1517 1517 1516 1516 1515 1515 1515 1515 1515 1515 1515 1515 1516 1516 1517 1516 1516 1517 1517 1517 1518 1518
1500 1503 1505 1508 1510 1512 1513 1514 1515 1516 1516 1517 1517 1518 1518 1519 1519 1519 1519 1518 1518 1517 1516 1516 1515 1515 1515 1514 1514 1514 1514 1514 1514 1515 1515 1515 1515 1515 1516 1516 1516 1517 1517
1498 1501 1504 1507 1509 1511 1513 1513 1514 1515 1515 1516 1516 1517 1517 1518 1518 1518 1518 1518 1518 1517 1516 1516 1515 1514 1514 1514 1513 1513 1513 1513 1513 1513 1514 1514 1514 1514 1514 1514 1515 1515 1516
1497 1500 1503 1505 1508 1510 1511 1512 1513 1514 1514 1515 1515 1516 1517 1517 1517 1518 1518 1518 1518 1517 1516 1515 1514 1514 1513 1513 1513 1513 1512 1512 1512 1512 1512 1512 1512 1513 1513 1513 1513 1513 1514
1495 1499 1502 1504 1507 1509 1510 1511 1512 1512 1513 1514 1514 1515 1516 1516 1517 1517 1517 1517 1517 1517 1516 1515 1514 1513 1513 1513 1512 1512 1511 1511 1511 1511 1511 1511 1511 1511 1511 1512 1511 1511 1512
1495 1497 1500 1503 1505 1507 1509 1510 1511 1511 1512 1512 1513 1514 1514 1515 1516 1516 1516 1516 1516 1516 1515 1514 1513 1512 1512 1512 1511 1511 1510 1510 1510 1510 1509 1509 1510 1510 1510 1510 1510 1511 1510
1494 1497 1499 1502 1504 1506 1508 1510 1510 1511 1511 1512 1512 1513 1513 1514 1514 1515 1515 1515 1515 1514 1513 1513 1512 1512 1511 1511 1510 1510 1509 1509 1509 1508 1508 1508 1508 1508 1508 1509 1509 1509 1510
1492 1495 1498 1501 1503 1505 1508 1509 1510 1511 1511 1512 1512 1512 1513 1513 1513 1513 1513 1513 1513 1513 1512 1512 1511 1511 1510 1510 1509 1508 1508 1508 1507 1507 1507 1506 1506 1506 1506 1506 1507 1507 1508
1491 1494 1497 1500 1502 1505 1506 1508 1508 1510 1511 1511 1512 1512 1512 1513 1513 1513 1512 1512 1512 1511 1511 1511 1510 1510 1509 1509 1508 1507 1507 1507 1506 1506 1505 1505 1505 1504 1504 1504 1505 1505 1505
1491 1494 1497 1498 1502 1504 1505 1507 1508 1509 1510 1510 1511 1511 1511 1512 1512 1512 1511 1511 1511 1511 1510 1510 1509 1509 1508 1507 1507 1507 1506 1506 1505 1504 1504 1503 1503 1502 1502 1503 1503 1503 1504
1491 1493 1496 1498 1501 1503 1505 1506 1507 1508 1509 1509 1510 1510 1510 1511 1511 1511 1511 1510 1510 1510 1509 1509 1508 1508 1507 1507 1506 1505 1505 1504 1504 1503 1503 1502 1502 1502 1501 1501 1501 1502 1502
1491 1493 1496 1498 1499 1502 1503 1504 1506 1507 1507 1508 1509 1509 1510 1510 1510 1510 1510 1509 1509 1509 1508 1508 1507 1507 1506 1506 1505 1505 1504 1503 1503 1502 1502 1501 1501 1501 1500 1500 1500 1500 1500
1491 1494 1496 1498 1499 1501 1502 1503 1505 1506 1507 1507 1508 1508 1508 1508 1508 1508 1508 1508 1508 1507 1507 1506 1506 1506 1506 1505 1504 1503 1503 1502 1502 1501 1501 1500 1500 1499 1499 1499 1499 1498 1498
1491 1493 1495 1497 1498 1499 1500 1502 1504 1505 1505 1506 1506 1506 1506 1506 1506 1507 1506 1506 1506 1506 1506 1505 1505 1505 1504 1504 1503 1502 1501 1501 1500 1500 1499 1499 1499 1498 1498 1497 1497 1497 1497
1491 1493 1495 1496 1497 1498 1499 1501 1503 1503 1504 1504 1504 1504 1505 1505 1505 1505 1504 1504 1504 1504 1504 1504 1503 1503 1503 1502 1502 1501 1500 1499 1499 1498 1498 1497 1496 1496 1496 1496 1495 1495 1495
1490 1492 1494 1495 1496 1497 1498 1499 1501 1501 1502 1502 1502 1503 1503 1503 1503 1503 1502 1503 1503 1503 1503 1503 1502 1502 1501 1501 1500 1499 1499 1498 1497 1497 1496 1496 1495 1495 1494 1494 1493 1493 1493
1489 1491 1493 1494 1495 1497 1497 1498 1499 1500 1500 1501 1501 1501 1501 1501 1501 1501 1501 1501 1501 1502 1502 1501 1501 1500 1500 1499 1498 1498 1497 1497 1496 1495 1495 1494 1493 1493 1493 1492 1491 1491 1490
1488 1490 1492 1493 1494 1495 1496 1497 1498 1499 1499 1499 1499 1499 1499 1499 1499 1499 1499 1500 1500 1500 1500 1499 1499 1499 1498 1497 1497 1496 1496 1495 1494 1494 1493 1492 1492 1491 1490 1490 1489 1489 1488
1488 1490 1491 1492 1493 1494 1495 1496 1497 1497 1498 1497 1497 1497 1497 1497 1498 1497 1497 1497 1498 1498 1498 1498 1497 1497 1496 1496 1495 1495 1494 1493 1492 1491 1491 1490 1489 1489 1488 1487 1487 1486 1486
1488 1490 1491 1492 1492 1493 1494 1494 1495 1495 1496 1496 1496 1495 1495 1495 1495 1495 1495 1495 1496 1496 1496 1496 1495 1495 1494 1493 1493 1492 1492 1491 1490 1489 1489 1488 1487 1486 1486 1485 1484 1484 1484
1489 1489 1490 1491 1492 1492 1493 1493 1493 1493 1494 1494 1494 1494 1494 1494 1494 1494 1494 1494 1494 1494 1494 1494 1493 1493 1492 1491 1490 1490 1489 1488 1487 1487 1486 1486 1485 1484 1483 1483 1482 1482 1481
1487 1489 1489 1490 1491 1491 1491 1492 1492 1492 1492 1492 1492 1492 1492 1492 1492 1492 1492 1492 1492 1492 1492 1491 1491 1490 1490 1489 1488 1487 1486 1486 1485 1484 1483 1483 1482 1482 1481 1481 1480 1479 1478
1486 1487 1488 1489 1489 1489 1490 1491 1491 1490 1490 1490 1491 1491 1491 1491 1490 1490 1490 1490 1490 1489 1489 1489 1489 1488 1487 1487 1486 1485 1484 1483 1483 1482 1481 1480 1480 1479 1479 1478 1477 1476 1475